Home > Weather > Hildesheim > Past weeks

Flag for Germany Weather for the Past 2 Weeks in Hildesheim, Lower Saxony, Germany

Now
39 °F

Sunny.


Feels Like: 32 °F
Forecast: 34 / 42 °F
Wind: 12 mph from West

Location: Braunschweig Wolfsburg

Current Time: Feb 11, 2016 at 9:52:04 AM

Latest Report: Feb 11, 2016 at 9:20 AM


Visibility: 10 mi

Pressure: 29.56 "Hg

Humidity: 81%

Dew point: 34 °F

Location of HildesheimLocation

Historic Weather in Hildesheim — Graph

°F

Hildesheim Temperature Yesterday

Maximum temperature yesterday: 41 °F (at 12:20 PM)
Minimum temperature yesterday: 37 °F (at 6:50 AM)
Average temperature yesterday: 39 °F

High & Low Weather Summary for the Past Weeks

 TemperatureHumidityPressure
High55 °F (Feb 7, 11:50 AM)100% (Feb 1, 7:20 AM)30.24 "Hg (Feb 1, 7:20 AM)
Low37 °F (Jan 28, 7:50 PM)51% (Feb 7, 11:50 AM)28.85 "Hg (Feb 9, 7:20 PM)
Average45 °F76%29.77 "Hg
* Reported Jan 27 8:20 AM — Feb 11 8:50 AM, Hildesheim, Weather by CustomWeather, © 2016

Note: Actual official high and low records may vary slightly from our data, if they occured in-between our weather recording intervals... More about our weather records

Advertising

Hildesheim Weather History for the Previous 24 Hours

 ConditionsComfort  
Time TempWeatherWind HumidityBarometerVisibility
8:50 AM
Thu, Feb 11
37 °FPassing clouds.12 mph87%29.53 "HgN/A
8:20 AM37 °FPassing clouds.10 mph81%29.53 "HgN/A
7:50 AM37 °FSunny.10 mph81%29.53 "Hg10 mi
7:20 AM37 °FPassing clouds.12 mph81%29.50 "HgN/A
6:50 AM37 °FPassing clouds.14 mph81%29.50 "HgN/A
10:50 PM
Wed, Feb 10
41 °FMostly cloudy.12 mph87%29.36 "HgN/A
10:20 PM41 °FOvercast.13 mph87%29.36 "HgN/A
9:50 PM41 °FOvercast.13 mph87%29.36 "HgN/A
9:20 PM39 °FMostly cloudy.12 mph87%29.36 "HgN/A
8:50 PM39 °FOvercast.10 mph87%29.33 "HgN/A
8:20 PM39 °FMostly cloudy.12 mph87%29.33 "HgN/A
7:50 PM39 °FPassing clouds.12 mph87%29.33 "HgN/A
7:20 PM39 °FPartly cloudy.10 mph87%29.33 "HgN/A
6:50 PM39 °FPassing clouds.10 mph87%29.33 "HgN/A
6:20 PM39 °FPassing clouds.10 mph87%29.33 "HgN/A
5:50 PM39 °FPartly cloudy.10 mph87%29.30 "HgN/A
5:20 PM39 °FBroken clouds.10 mph87%29.30 "HgN/A
4:50 PM39 °FSprinkles. Partly sunny.12 mph87%29.30 "HgN/A
4:20 PM39 °FSprinkles. Broken clouds.15 mph87%29.30 "HgN/A
3:50 PM41 °FMostly cloudy.13 mph76%29.30 "HgN/A
3:20 PM41 °FPartly sunny.14 mph76%29.27 "HgN/A
2:50 PM41 °FPartly sunny.13 mph76%29.27 "HgN/A
2:20 PM41 °FPartly sunny.15 mph76%29.27 "HgN/A
1:50 PM41 °FScattered clouds.15 mph81%29.27 "HgN/A
1:20 PM41 °FCloudy.15 mph81%29.27 "HgN/A
12:50 PM39 °FDrizzle. Cloudy.16 mph81%29.27 "HgN/A
12:20 PM41 °FBroken clouds.16 mph81%29.27 "HgN/A
11:50 AM39 °FCloudy.20 mph81%29.27 "HgN/A
11:20 AM39 °FCloudy.15 mph81%29.27 "HgN/A
10:50 AM39 °FDrizzle. Mostly cloudy.16 mph81%29.27 "HgN/A
10:20 AM39 °FDrizzle. Broken clouds.12 mph81%29.24 "HgN/A
9:50 AM37 °FDrizzle. Mostly cloudy.9 mph87%29.24 "Hg5 mi
9:20 AM39 °FMostly cloudy.12 mph75%29.24 "HgN/A
Weather by CustomWeather, © 2016

See weather overviewHow to use our weather pages